CRE68 MYEH-KFXE

Flight info

Callsign CRE68
Flight time 0h 51m
Altitude 34000
Route CHOIE2 HEKOP DCT OLAHS OLAHS3
Aircraft C25C/M-SDE2E3FGHRWXY/LB1

Departure

Time 2026-05-08 19:57
Airport North Eleuthera Airport (MYEH)

Arrival

Time 2026-05-08 20:48
Airport Fort Lauderdale Executive Airport (KFXE)
Time Latitude Longitude Altitude Speed Heading
2026-05-08 19:43 25.47714 -76.68076 9 ft 0 kts 155°
2026-05-08 19:51 25.47713 -76.68075 15 ft 1 kts 161°
2026-05-08 19:51 25.47682 -76.68100 7 ft 10 kts 238°
2026-05-08 19:51 25.47675 -76.68115 7 ft 0 kts 243°
2026-05-08 19:52 25.47663 -76.68141 7 ft 10 kts 240°
2026-05-08 19:53 25.47621 -76.68190 7 ft 8 kts 178°
2026-05-08 19:53 25.47556 -76.68189 8 ft 10 kts 223°
2026-05-08 19:53 25.47520 -76.68252 9 ft 12 kts 247°
2026-05-08 19:53 25.47493 -76.68346 9 ft 13 kts 250°
2026-05-08 19:54 25.47460 -76.68433 9 ft 12 kts 248°
2026-05-08 19:54 25.47429 -76.68519 10 ft 12 kts 245°
2026-05-08 19:54 25.47392 -76.68616 12 ft 14 kts 248°
2026-05-08 19:54 25.47356 -76.68712 12 ft 15 kts 245°
2026-05-08 19:55 25.47303 -76.68853 12 ft 21 kts 248°
2026-05-08 19:55 25.47264 -76.68963 12 ft 9 kts 310°
2026-05-08 19:55 25.47280 -76.68912 12 ft 11 kts 66°
2026-05-08 19:55 25.47294 -76.68879 12 ft 0 kts 69°
2026-05-08 19:56 25.47357 -76.68704 12 ft 73 kts 68°
2026-05-08 19:57 25.47661 -76.67832 297 ft 152 kts 70°
2026-05-08 19:57 25.48076 -76.66580 1265 ft 190 kts 69°
2026-05-08 19:57 25.48627 -76.65143 2503 ft 215 kts 66°
2026-05-08 19:57 25.49240 -76.63533 3409 ft 240 kts 67°
2026-05-08 19:58 25.49909 -76.61750 4300 ft 262 kts 64°
2026-05-08 19:58 25.51159 -76.60181 4699 ft 284 kts 33°
2026-05-08 19:58 25.53037 -76.59565 4705 ft 286 kts
2026-05-08 19:58 25.54891 -76.60159 4713 ft 275 kts 327°
2026-05-08 19:59 25.56111 -76.61703 4720 ft 264 kts 297°
2026-05-08 19:59 25.56497 -76.63650 4744 ft 265 kts 266°
2026-05-08 19:59 25.56255 -76.65652 5179 ft 261 kts 262°
2026-05-08 19:59 25.56011 -76.67655 5447 ft 264 kts 262°
2026-05-08 20:00 25.55784 -76.69677 5751 ft 265 kts 263°
2026-05-08 20:00 25.55578 -76.71724 6352 ft 268 kts 263°
2026-05-08 20:00 25.55362 -76.73759 7559 ft 268 kts 262°
2026-05-08 20:00 25.55138 -76.75838 8557 ft 275 kts 262°
2026-05-08 20:01 25.54914 -76.77927 9577 ft 281 kts 262°
2026-05-08 20:01 25.54683 -76.80094 10547 ft 285 kts 262°
2026-05-08 20:01 25.54454 -76.82278 11540 ft 286 kts 262°
2026-05-08 20:01 25.54214 -76.84479 12507 ft 289 kts 263°
2026-05-08 20:02 25.53978 -76.86696 13439 ft 291 kts 263°
2026-05-08 20:02 25.53737 -76.88936 14280 ft 294 kts 264°
2026-05-08 20:02 25.53464 -76.91191 15083 ft 297 kts 259°
2026-05-08 20:02 25.52610 -76.93283 15874 ft 301 kts 242°
2026-05-08 20:03 25.51628 -76.95337 16660 ft 304 kts 244°
2026-05-08 20:03 25.50621 -76.97418 17441 ft 308 kts 244°
2026-05-08 20:03 25.49598 -76.99513 18210 ft 311 kts 244°
2026-05-08 20:03 25.48564 -77.01628 18884 ft 314 kts 244°
2026-05-08 20:04 25.47528 -77.03768 19569 ft 316 kts 244°
2026-05-08 20:04 25.46483 -77.05919 20252 ft 318 kts 244°
2026-05-08 20:04 25.45425 -77.08087 20932 ft 321 kts 244°
2026-05-08 20:04 25.44377 -77.10245 21590 ft 324 kts 244°
2026-05-08 20:05 25.43302 -77.12445 22255 ft 327 kts 244°
2026-05-08 20:05 25.42223 -77.14665 22932 ft 329 kts 244°
2026-05-08 20:05 25.41129 -77.16905 23584 ft 332 kts 245°
2026-05-08 20:05 25.40029 -77.19159 23961 ft 334 kts 244°
2026-05-08 20:06 25.38915 -77.21445 24004 ft 341 kts 244°
2026-05-08 20:06 25.37771 -77.23783 24008 ft 349 kts 244°
2026-05-08 20:06 25.36592 -77.26207 24015 ft 367 kts 244°
2026-05-08 20:06 25.35347 -77.28748 24017 ft 384 kts 244°
2026-05-08 20:07 25.34130 -77.31431 24019 ft 396 kts 248°
2026-05-08 20:07 25.32926 -77.34231 24020 ft 406 kts 246°
2026-05-08 20:07 25.31662 -77.37046 24023 ft 412 kts 246°
2026-05-08 20:07 25.30400 -77.39910 24026 ft 416 kts 246°
2026-05-08 20:08 25.29145 -77.42814 24026 ft 420 kts 247°
2026-05-08 20:08 25.27874 -77.45732 24027 ft 423 kts 246°
2026-05-08 20:08 25.26587 -77.48668 24027 ft 425 kts 246°
2026-05-08 20:08 25.25355 -77.51594 24022 ft 425 kts 251°
2026-05-08 20:09 25.24737 -77.54770 24014 ft 422 kts 265°
2026-05-08 20:09 25.24843 -77.57969 24005 ft 414 kts 279°
2026-05-08 20:09 25.25610 -77.61011 24004 ft 409 kts 289°
2026-05-08 20:09 25.26549 -77.63964 24004 ft 405 kts 289°
2026-05-08 20:10 25.27496 -77.66883 24001 ft 402 kts 289°
2026-05-08 20:10 25.28425 -77.69791 24000 ft 400 kts 289°
2026-05-08 20:10 25.29342 -77.72686 23997 ft 398 kts 289°
2026-05-08 20:10 25.30254 -77.75571 23995 ft 397 kts 289°
2026-05-08 20:11 25.31170 -77.78446 23993 ft 396 kts 289°
2026-05-08 20:11 25.32080 -77.81309 23997 ft 395 kts 289°
2026-05-08 20:11 25.32986 -77.84170 23994 ft 394 kts 289°
2026-05-08 20:11 25.33892 -77.87029 23995 ft 393 kts 289°
2026-05-08 20:12 25.34794 -77.89883 23996 ft 393 kts 289°
2026-05-08 20:12 25.35700 -77.92738 23995 ft 393 kts 289°
2026-05-08 20:12 25.36600 -77.95592 23997 ft 392 kts 289°
2026-05-08 20:12 25.37501 -77.98440 23997 ft 392 kts 289°
2026-05-08 20:13 25.38386 -78.01248 23997 ft 392 kts 289°
2026-05-08 20:13 25.39285 -78.04094 23996 ft 392 kts 289°
2026-05-08 20:13 25.40185 -78.06951 23998 ft 391 kts 289°
2026-05-08 20:13 25.41080 -78.09796 23995 ft 391 kts 288°
2026-05-08 20:14 25.41977 -78.12640 23993 ft 391 kts 289°
2026-05-08 20:14 25.42851 -78.15426 23994 ft 372 kts 288°
2026-05-08 20:14 25.43678 -78.18047 23992 ft 351 kts 288°
2026-05-08 20:14 25.44461 -78.20548 23991 ft 337 kts 288°
2026-05-08 20:15 25.45215 -78.22949 23989 ft 325 kts 288°
2026-05-08 20:15 25.45934 -78.25243 23990 ft 315 kts 288°
2026-05-08 20:15 25.46643 -78.27508 23991 ft 307 kts 288°
2026-05-08 20:15 25.47335 -78.29709 23991 ft 300 kts 288°
2026-05-08 20:16 25.48009 -78.31869 23993 ft 294 kts 288°
2026-05-08 20:16 25.48673 -78.33990 23991 ft 289 kts 288°
2026-05-08 20:16 25.49325 -78.36071 23994 ft 284 kts 288°
2026-05-08 20:16 25.49965 -78.38126 23993 ft 281 kts 288°
2026-05-08 20:17 25.50602 -78.40161 23993 ft 278 kts 288°
2026-05-08 20:17 25.51240 -78.42206 23993 ft 284 kts 288°
2026-05-08 20:17 25.51890 -78.44294 23991 ft 289 kts 288°
2026-05-08 20:17 25.52553 -78.46415 23995 ft 294 kts 288°
2026-05-08 20:18 25.53222 -78.48566 23998 ft 298 kts 288°
2026-05-08 20:18 25.53907 -78.50765 23800 ft 308 kts 288°
2026-05-08 20:18 25.54613 -78.53031 23393 ft 323 kts 288°
2026-05-08 20:18 25.55356 -78.55429 22948 ft 334 kts 288°
2026-05-08 20:19 25.56123 -78.57881 22500 ft 338 kts 288°
2026-05-08 20:19 25.56885 -78.60344 22052 ft 338 kts 288°
2026-05-08 20:19 25.57654 -78.62810 21601 ft 338 kts 288°
2026-05-08 20:19 25.58414 -78.65271 21158 ft 338 kts 288°
2026-05-08 20:20 25.59181 -78.67737 20708 ft 339 kts 288°
2026-05-08 20:20 25.59945 -78.70207 20261 ft 339 kts 288°
2026-05-08 20:20 25.60712 -78.72683 19816 ft 340 kts 288°
2026-05-08 20:20 25.61480 -78.75162 19367 ft 341 kts 288°
2026-05-08 20:21 25.62247 -78.77648 18920 ft 341 kts 288°
2026-05-08 20:21 25.63019 -78.80138 18467 ft 340 kts 288°
2026-05-08 20:21 25.63779 -78.82610 17993 ft 337 kts 288°
2026-05-08 20:21 25.64536 -78.85052 17544 ft 333 kts 288°
2026-05-08 20:22 25.65279 -78.87473 17102 ft 330 kts 288°
2026-05-08 20:22 25.66020 -78.89868 16669 ft 328 kts 288°
2026-05-08 20:22 25.66753 -78.92255 16239 ft 326 kts 288°
2026-05-08 20:22 25.67240 -78.93829 15957 ft 325 kts 288°
2026-05-08 20:23 25.68214 -78.96999 15387 ft 324 kts 288°
2026-05-08 20:23 25.68931 -78.99336 14954 ft 324 kts 288°
2026-05-08 20:23 25.69657 -79.01694 14538 ft 322 kts 288°
2026-05-08 20:23 25.70375 -79.04040 14110 ft 319 kts 288°
2026-05-08 20:24 25.70935 -79.06426 13324 ft 313 kts 281°
2026-05-08 20:24 25.71409 -79.08673 12862 ft 291 kts 283°
2026-05-08 20:24 25.71882 -79.10814 12532 ft 279 kts 282°
2026-05-08 20:24 25.72326 -79.12885 12232 ft 275 kts 282°
2026-05-08 20:25 25.72754 -79.14938 11937 ft 272 kts 282°
2026-05-08 20:25 25.73186 -79.16971 11654 ft 270 kts 282°
2026-05-08 20:25 25.73614 -79.18994 11369 ft 270 kts 282°
2026-05-08 20:25 25.74046 -79.21038 11083 ft 274 kts 281°
2026-05-08 20:26 25.74489 -79.23125 10791 ft 282 kts 281°
2026-05-08 20:26 25.74940 -79.25267 10491 ft 288 kts 281°
2026-05-08 20:26 25.75402 -79.27451 10182 ft 293 kts 281°
2026-05-08 20:26 25.75935 -79.29653 9868 ft 298 kts 286°
2026-05-08 20:27 25.76546 -79.31857 9532 ft 300 kts 283°
2026-05-08 20:27 25.77096 -79.34107 9198 ft 302 kts 284°
2026-05-08 20:27 25.77683 -79.36350 8881 ft 303 kts 284°
2026-05-08 20:27 25.78277 -79.38559 8559 ft 301 kts 285°
2026-05-08 20:28 25.78867 -79.40764 8245 ft 296 kts 285°
2026-05-08 20:28 25.79441 -79.42943 7928 ft 292 kts 285°
2026-05-08 20:28 25.80006 -79.45095 7618 ft 289 kts 285°
2026-05-08 20:28 25.80569 -79.47219 7313 ft 284 kts 285°
2026-05-08 20:29 25.81119 -79.49311 7011 ft 281 kts 285°
2026-05-08 20:29 25.81668 -79.51377 6721 ft 278 kts 285°
2026-05-08 20:29 25.82204 -79.53430 6424 ft 275 kts 285°
2026-05-08 20:29 25.82745 -79.55467 6116 ft 275 kts 285°
2026-05-08 20:30 25.83277 -79.57499 5821 ft 274 kts 285°
2026-05-08 20:30 25.83810 -79.59522 5529 ft 272 kts 286°
2026-05-08 20:30 25.84534 -79.61461 5236 ft 271 kts 297°
2026-05-08 20:30 25.85241 -79.62595 5062 ft 270 kts 315°
2026-05-08 20:31 25.86820 -79.63632 5005 ft 261 kts 340°
2026-05-08 20:31 25.88566 -79.64034 4997 ft 252 kts 350°
2026-05-08 20:31 25.90271 -79.64351 4988 ft 245 kts 351°
2026-05-08 20:31 25.92496 -79.64746 4985 ft 245 kts 350°
2026-05-08 20:32 25.93634 -79.64956 4984 ft 246 kts 350°
2026-05-08 20:32 25.95329 -79.65278 4987 ft 247 kts 350°
2026-05-08 20:32 25.97010 -79.65590 4987 ft 249 kts 350°
2026-05-08 20:32 25.98719 -79.65912 4986 ft 250 kts 350°
2026-05-08 20:33 26.00442 -79.66232 4992 ft 253 kts 350°
2026-05-08 20:33 26.02189 -79.66558 4989 ft 255 kts 350°
2026-05-08 20:33 26.03945 -79.66889 4993 ft 257 kts 350°
2026-05-08 20:33 26.05716 -79.67217 4989 ft 258 kts 350°
2026-05-08 20:34 26.07492 -79.67553 4994 ft 259 kts 350°
2026-05-08 20:34 26.09297 -79.67887 4772 ft 265 kts 350°
2026-05-08 20:34 26.12895 -79.68562 4291 ft 259 kts 350°
2026-05-08 20:35 26.14664 -79.68894 4047 ft 257 kts 350°
2026-05-08 20:35 26.16419 -79.69237 3803 ft 254 kts 347°
2026-05-08 20:35 26.17953 -79.70147 3556 ft 252 kts 315°
2026-05-08 20:35 26.19154 -79.71559 3319 ft 250 kts 313°
2026-05-08 20:36 26.20150 -79.73119 3065 ft 250 kts 288°
2026-05-08 20:36 26.20239 -79.75032 2818 ft 249 kts 265°
2026-05-08 20:36 26.20070 -79.76955 2582 ft 249 kts 263°
2026-05-08 20:36 26.19849 -79.78870 2340 ft 249 kts 262°
2026-05-08 20:37 26.19628 -79.80788 2116 ft 249 kts 262°
2026-05-08 20:37 26.19406 -79.82677 2056 ft 243 kts 262°
2026-05-08 20:37 26.19195 -79.84497 2027 ft 238 kts 263°
2026-05-08 20:37 26.18982 -79.86319 2011 ft 236 kts 262°
2026-05-08 20:38 26.18770 -79.88123 2009 ft 235 kts 262°
2026-05-08 20:38 26.18558 -79.89933 2008 ft 237 kts 262°
2026-05-08 20:38 26.18347 -79.91758 2006 ft 238 kts 263°
2026-05-08 20:38 26.18139 -79.93583 2003 ft 238 kts 262°
2026-05-08 20:39 26.17929 -79.95413 2012 ft 239 kts 263°
2026-05-08 20:39 26.17715 -79.97257 2002 ft 241 kts 262°
2026-05-08 20:39 26.17504 -79.99115 2007 ft 242 kts 262°
2026-05-08 20:39 26.17296 -80.00976 2014 ft 242 kts 263°
2026-05-08 20:40 26.17085 -80.02833 2008 ft 242 kts 263°
2026-05-08 20:40 26.16870 -80.04690 2008 ft 241 kts 263°
2026-05-08 20:40 26.16658 -80.06548 2007 ft 243 kts 262°
2026-05-08 20:40 26.16453 -80.08417 2009 ft 243 kts 262°
2026-05-08 20:41 26.16255 -80.10285 2018 ft 245 kts 263°
2026-05-08 20:41 26.16054 -80.12198 2000 ft 250 kts 263°
2026-05-08 20:41 26.15842 -80.14123 2000 ft 250 kts 262°
2026-05-08 20:41 26.15642 -80.15985 1995 ft 235 kts 263°
2026-05-08 20:42 26.15454 -80.17756 1988 ft 225 kts 262°
2026-05-08 20:42 26.15281 -80.19452 1986 ft 216 kts 262°
2026-05-08 20:42 26.15125 -80.21082 1997 ft 209 kts 263°
2026-05-08 20:42 26.14974 -80.22654 1991 ft 204 kts 263°
2026-05-08 20:43 26.14827 -80.24207 1995 ft 199 kts 264°
2026-05-08 20:43 26.14704 -80.25735 1994 ft 196 kts 264°
2026-05-08 20:43 26.14577 -80.27176 2008 ft 178 kts 264°
2026-05-08 20:43 26.14771 -80.28484 2111 ft 169 kts 300°
2026-05-08 20:44 26.15646 -80.29299 2041 ft 167 kts 342°
2026-05-08 20:44 26.16663 -80.29322 1914 ft 132 kts 17°
2026-05-08 20:44 26.17504 -80.29148 1721 ft 120 kts 16°
2026-05-08 20:44 26.18159 -80.28692 1469 ft 112 kts 59°
2026-05-08 20:45 26.18541 -80.27913 1229 ft 114 kts 72°
2026-05-08 20:45 26.18787 -80.27101 1139 ft 109 kts 82°
2026-05-08 20:45 26.18915 -80.26268 1043 ft 111 kts 87°
2026-05-08 20:45 26.19005 -80.25391 989 ft 114 kts 87°
2026-05-08 20:46 26.19087 -80.24506 940 ft 115 kts 86°
2026-05-08 20:46 26.19182 -80.23596 854 ft 123 kts 84°
2026-05-08 20:46 26.19308 -80.22631 717 ft 126 kts 85°
2026-05-08 20:46 26.19385 -80.21684 639 ft 120 kts 83°
2026-05-08 20:47 26.19483 -80.20786 459 ft 113 kts 83°
2026-05-08 20:47 26.19572 -80.19932 308 ft 111 kts 81°
2026-05-08 20:47 26.19660 -80.19064 189 ft 114 kts 83°
2026-05-08 20:47 26.19747 -80.18193 54 ft 111 kts 83°
2026-05-08 20:48 26.19818 -80.17459 17 ft 65 kts 84°
2026-05-08 20:48 26.19848 -80.17144 20 ft 22 kts 98°
2026-05-08 20:48 26.19804 -80.17065 19 ft 5 kts 127°
2026-05-08 20:48 26.19773 -80.17064 19 ft 5 kts 214°
2026-05-08 20:49 26.19761 -80.17097 19 ft 5 kts 264°
2026-05-08 20:49 26.19753 -80.17183 19 ft 15 kts 264°
2026-05-08 20:49 26.19743 -80.17279 22 ft 8 kts 252°
2026-05-08 20:49 26.19705 -80.17272 20 ft 8 kts 128°
2026-05-08 20:50 26.19667 -80.17221 21 ft 8 kts 128°
2026-05-08 20:50 26.19629 -80.17165 18 ft 10 kts 126°
2026-05-08 20:50 26.19582 -80.17103 18 ft 11 kts 129°
2026-05-08 20:50 26.19553 -80.17062 18 ft 7 kts 129°
2026-05-08 20:51 26.19521 -80.17017 18 ft 8 kts 128°
2026-05-08 20:51 26.19470 -80.16996 17 ft 9 kts 214°
2026-05-08 20:51 26.19455 -80.17026 17 ft 2 kts 312°
2026-05-08 20:51 26.19476 -80.17027 17 ft 4 kts 338°
2026-05-08 20:52 26.19503 -80.17059 18 ft 6 kts 310°
2026-05-08 20:52 26.19507 -80.17074 18 ft 3 kts 266°